Погода в Черлаке

Погода в Черлаке : погода сейчас, прогноз погоды и архив. Всё, что Вы хотите узнать о погоде в Черлаке!

Хотите узнать прогноз погоды в Черлаке? Тогда Вам сюда: Погода в Черлаке

Поиск расширенной информации на нашем сайте:

Другие новости

Новости СМИ2

Главная страница сайта

Новости сайта

03.07.2017

Напоминаем, что на нашем специализированном сайте Метеоцентр.Азия вы можете получить высокодетализированные автоматические прогнозы погоды по пунктам России, СНГ и мира в авиационном формате (включающие направление и скорость ветра, видимость, явления погоды, количество и форму облачности, нижнюю и верхнюю границу облачности).


Погода в Черлаке - сегодня

Время (UTC), дата Ветер
(°,м/с) 
Видим.   Явления Облачность Т
(°С)
Тd
(°С)
f(%) Тe
(°С)
Pmin
(гПа)
dP
(гПа)
Po
(мм)
O2
(г/м3)
Тmin Tmax R s Состояние
почвы
00 17.09.17 180 (Ю) 10 км    1/0 верхняя 
[Ci fib]
+9.7 +7.1 84 +10  1016.7  -0.9  752  291           
03 17.09.17 190 (Ю) 20000 м    3/0 верхняя 
[Ci fib]
+14.7 +8.4 66 +15  1015.2  -1.3  751  286  +8.1         
06 17.09.17 210 (ЮЗ) 20000 м    6/0 верхняя 
[Cs]
+25.4 +9.3 36 +26  1012  -2.6  749  275           
15 17.09.17 310 (СЗ) 10 км    ясно 
+17.9 +10.3 61 +21  1010.2  0.6  748  281    +29       
18 17.09.17 350 (С) 10 км    4/0 верхняя 
[Cs]
+16.7 +10.4 66 +20  1010.8  0.6  748  282           
21 17.09.17 тихо ()   10 км    ясно 
+10.5 +8.9 90 +11  1011.5  0.4  748  289           
00 18.09.17 тихо ()   10 км    ясно 
+8.5 +7.5 93 +9  1012.1  0.4  749  291           
03 18.09.17 300 (СЗ) 20000 м    3/0 верхняя 
[Ci fib]
+13.1 +8.3 73 +14  1012.1  0.3  749  286  +7.4         
06 18.09.17 310 (СЗ) 20000 м    10/3 600 м кучево-дожд., средняя, верхняя 
[Cb cap|Ac As|Cs]
+18.2 +8.2 52 +19  1011.6  -0.3  749  281           
09 18.09.17 290 (З) 20000 м    10/5 600 м кучево-дожд., средняя 
[Cb cap|Ac As]
+17.5 +6.2 47 +18  1011.4  -0.3  748  282           
12 18.09.17 290 (З) 20000 м    10/4 600 м кучево-дожд., средняя, верхняя 
[Cb cap|Ac cuf|Cs]
+16.2 +5.9 50 +16  1010.9  -0.5  748  284           
15 18.09.17 270 (З) 10 км    10/6 600 м кучево-дожд., средняя, верхняя 
[Cb cap|Ac cuf|Cs]
+12.5 +5.9 64 +13  1011.7  0.7  749  287    +18.6       
18 18.09.17 310 (СЗ) 10 км    ясно 
+9 +5.8 80 +9  1011.8  0.1  748  291           
21 18.09.17 310 (СЗ) 10 км    4/4 600 м кучево-дожд. 
[Cb cap]
+9.8 +7.6 86 +10  1012.2  0.5  749  290           
00 19.09.17 320 (СЗ) 10 км    8/3 600 м кучево-дожд., средняя 
[Cb cap|Ac cuf]
+8 +7.1 94 +8  1014  1.7  750  292           
03 19.09.17 320 (СЗ) 20000 м    6/3 600 м средняя 
[Cu hum|Ac cuf]
+10.9 +7.6 80 +11  1016.2  2.3  752  290  +8         
06 19.09.17 320 (СЗ) 3{10}  20000 м    8/8 300 м кучево-дожд. 
[Cb cap]
+13.3 +5.8 60 +13  1017.4  1.3  753  288           
12 19.09.17 320 (СЗ) 3{10}  20000 м    8/5 600 м кучево-дожд., средняя 
[Cb cap|Ac trans]
+11.3 +4.3 62 +11  1020.5  1.4  755  291           
15 19.09.17 310 (СЗ) 10 км    9/9 1000 м 
[Sc diur, vesp]
+10.3 +4.5 67 +10  1022.1  1.5  756  293    +13.8       
18 19.09.17 310 (СЗ) 10 км    10/10 600 м 
[Sc]
+9.7 +4.6 70 +11  1022.8  0.7  757  294           
21 19.09.17 280 (З) 10 км    10/10 600 м 
[Sc]
+8.7 +4.2 73 +10  1023.2  0.3  757  295           
00 20.09.17 240 (ЮЗ) 10 км    10/5 1000 м средняя, верхняя 
[Sc|Ac trans|Ci fib]
+7.2 +4 80 +7  1023.3  757  297           
03 20.09.17 200 (Ю) 10 км  слаб. ливневой дождь  10/6 600 м кучево-дожд., средняя 
[Cb cap|Ac As]
+8.6 +4.9 78 +8  1021.3  -1.9  755  294  +7.1    0.0     
06 20.09.17 140 (ЮВ) 20000 м  в посл. час ливневой дождь  9/4 600 м кучево-дожд., средняя, верхняя 
[Cb cap|Ac trans|Cs]
+8.4 +7.9 97 +8  1019  -2.2  754  293           
09 20.09.17 170 (Ю) 20000 м  в посл. час ливневой дождь  10/3 600 м кучево-дожд., средняя, верхняя 
[Cb cap|Ac lent|Ci fib]
+13.6 +9.5 76 +13  1016.7  -2  752  287           
Время (UTC), дата Ветер
(°,м/с) 
Видим.   Явления Облачность Т
(°С)
Тd
(°С)
f(%) Тe
(°С)
Pmin
(гПа)
dP
(гПа)
Po
(мм)
O2
(г/м3)
Тmin Tmax R s Состояние
почвы

Для получения пояснительной информации подведите курсор к названию столбца.

ПОГОДА в Черлаке - архив

Всё, что Вы хотите узнать о погоде в Черлаке - удобно и подробно!

Выберите нужную дату (начиная с 1 января 2015* года) и нажмите кнопку "Найти".
Будут отображены архивные сводки погоды по пункту Черлак, начиная с указанной даты.


Отображать данные в формате CSV (для использования в таблицах Excel)


Внимание! Наш архив погоды предназначен исключительно для личного некоммерческого использования в познавательных целях. Если Вам необходимы официальные справки о состоянии погоды (для производственных, юридических, коммерческих и т.п. целей), обращайтесь в органы Росгидромета.

*Примечание: данная дата относится к архиву по метеостанциям СССР (Россия, СНГ, Балтия).
Архив по метеостанциям Зарубежной Европы и Азии (кроме Китая) хранится 10 дней, по другим регионам земного шара (Китай, Африка, Америка, Австралия, Океания) - 1 день.

Черлак - район местоположения метеостанции


Название, широта, долгота, высота метеостанции:
Черлак 54.2°ш. 74.8°д. 115 м над ур. моря [Российская Федерация]

Дополнительная информация

В oтличие oт бoльшинства пoгoдных сайтoв мы публикуем пoдрoбную метеoинфoрмацию в детальнoм прoфессиoнальнoм фoрмате.

Характеристики температуры и влажнoсти вoздуха измеряются на высoте 2 м в тени вдали oт зданий и деревьев.
Скoрoсть ветра измеряется на высoте 10 м (на урoвне рoста челoвека скoрoсть ветра ниже в 1.5-2 раза). Если метеoстанция нахoдится в гoрoде или в лесу, тo скoрoсть ветра занижена на 2-4 м/с пo сравнению с oткрытым местoм. Скoрoсть ветра над акватoриями крупных рек и oзёр, а также на вершинах хoлмoв на 2-5 м/с выше, чем в oбычных услoвиях.
Атмoсфернoе давление в разных тoчках местнoсти мoжет значительнo oтличаться oт давления на метеoстанции, в зависимoсти oт услoвий рельефа (при пoдъёме на 10 м давление пoнижается примернo на 1 мм рт.ст.).